Location: Heilbronn
(49.1548°N, 9.2780°E)
Time: 12:18:01
(UTC+01:00)

ISS - Pass Details

Date: 11 November 2017
Orbit: 401 x 407 km, 51.6° (Epoch: 25 November)

Event Time Altitude Azimuth Distance (km) Brightness Sun altitude
Exits shadow 05:10:19 44° 51° (NE) 569 -2.8 -22.3°
Drops below altitude 10° 05:12:52 10° 85° (E) 1,456 0.1 -21.9°
Sets 05:14:58 0° 90° (E) 2,315 1.6 -21.5°
